SCP
0 0 0 0 0 0 0 0 0 0 0 0 0 0 0 0 0 0 0 0 0 0 0 0 0 0 0 0 0 0 0 0 0 0 0 0 0 0 0 0 0 0 0
0 0 0 0 0 0 0 0 0 0 0 0 0 0 0 0 0 0 0 0 0 0 0 0 0 0 0 0 0 0 0 0 0 0 0 0 0 0 0 0 0 0 0
0 0 0 0 0 0 0 0 0 0 0 0 0 0 0 0 0 0 0 0 0 0 0 0 0 0 0 0 0 0 0 0 0 0 0 0 0 0 0 0 0 0 0
0 0 0 0 0 0 0 0 0 0 0 0 0 0 0 0 0 0 0 0 0 0 0 0 0 0 0 0 0 0 0 0 0 0 0 0 0 0 0 0 0 0 0
0 0 0 0 0 0 0 0 0 0 0 0 0 0 0 0 0 0 0 0 0 0 0 0 0 0 0 0 0 0 0 0 0 0 0 0 0 0 0 0 0 0 0
0 0 0 0 0 0 0 0 0 0 0 0 0 0 0 0 0 0 0 0 0 0 0 0 0 0 0 0 0 0 0 0 0 0 0 0 0 0 0 0 0 0 0
0 0 0 0 0 0 0 0 0 0 0 0 0 0 0 0 0 0 0 0 0 0 0 0 0 0 0 0 0 0 0 0 0 0 0 0 0 0 0 0 0 0 0
0 0 0 0 0 0 0 0 0 0 0 0 0 0 0 0 0 0 0 0 0 0 0 0 0 0 0 0 0 0 0 0 0 0 0 0 0 0 0 0 0 0 0
0 0 0 0 0 0 0 0 0 0 0 0 0 0 0 0 0 0 0 0 0 0 0 0 0 0 0 0 0 0 0 0 0 0 0 0 0 0 0 0 0 0 0
0 0 0 0 0 0 0 0 0 0 0 0 0 0 0 0 0 0 0 0 0 0 0 0 0 0 0 0 0 0 0 0 0 0 0 0 0 0 0 0 0 0 0
0 0 0 0 0 0 0 0 0 0 0 0 0 0 0 0 0 0 0 0 0 0 0 0 0 0 0 0 0 0 0 0 0 0 0 0 0 0 0 0 0 0 0
0 0 0 0 0 0 0 0 0 0 0 0 0 0 0 0 0 0 0 0 0 0 0 0 0 0 0 0 0 0 0 0 0 0 0 0 0 0 0 0 0 0 0
0 0 0 0 0 0 0 0 0 0 0 0 0 0 0 0 0 0 0 0 0 0 0 0 0 0 0 0 0 0 0 0 0 0 0 0 0 0 0 0 0 0 0
0 0 0 0 0 0 0 0 0 0 0 0 0 0 0 0 0 0 0 0 0 0 0 0 0 0 0 0 0 0 0 0 0 0 0 0 0 0 0 0 0 0 0
0 0 0 0 0 0 0 0 0 0 0 0 0 0 0 0 0 0 0 0 0 0 0 0 0 0 0 0 0 0 0 0 0 0 0 0 0 0 0 0 0 0 0
0 0 0 0 0 0 0 0 0 0 0 0 0 0 0 0 0 0 0 0 0 0 0 0 0 0 0 0 0 0 0 0 0 0 0 0 0 0 0 0 0 0 0
0 0 0 0 0 0 0 0 0 0 0 0 0 0 0 0 0 0 0 0 0 0 0 0 0 0 0 0 0 0 0 0 0 0 0 0 0 0 0 0 0 0 0
0 0 0 0 0 0 0 0 0 0 0 0 0 0 0 0 0 0 0 0 0 0 0 0 0 0 0 0 0 0 0 0 0 0 0 0 0 0 0 0 0 0 0
0 0 0 0 0 0 0 0 0 0 0 0 0 0 0 0 0 0 0 0 0 0 0 0 0 0 0 0 0 0 0 0 0 0 0 0 0 0 0 0 0 0 0
0 0 0 0 0 0 0 0 0 0 0 0 0 0 0 0 0 0 0 0 0 0 0 0 0 0 0 0 0 0 0 0 0 0 0 0 0 0 0 0 0 0 0
0 0 0 0 0 0 0 0 0 0 0 0 0 0 0 0 0 0 0 0 0 0 0 0 0 0 0 0 0 0 0 0 0 0 0 0 0 0 0 0 0 0 0
0 0 0 0 0 0 0 0 0 0 0 0 0 0 0 0 0 0 0 0 0 0 0 0 0 0 0 0 0 0 0 0 0 0 0 0 0 0 0 0 0 0 0
0 0 0 0 0 0 0 0 0 0 0 0 0 0 0 0 0 0 0 0 0 0 0 0 0 0 0 0 0 0 0 0 0 0 0 0 0 0 0 0 0 0 0
0 0 0 0 0 0 0 0 0 0 0 0 0 0 0 0 0 0 0 0 0 0 0 0 0 0 0 0 0 0 0 0 0 0 0 0 0 0 0 0 0 0 0
0 0 0 0 0 0 0 0 0 0 0 0 0 0 0 0 0 0 0 0 0 0 0 0 0 0 0 0 0 0 0 0 0 0 0 0 0 0 0 0 0 0 0
0 0 0 0 0 0 0 0 0 0 0 0 0 0 0 0 0 0 0 0 0 0 0 0 0 0 0 0 0 0 0 0 0 0 0 0 0 0 0 0 0 0 0
Wind_Speed
8 8 9 9 9 9 8 8 7 7 7 7 7 7 8 7 7 7 8 8 9 8 8 9 8 7 6 5 4 4 4 4 5 1 0 0 0 1 2 2 3 3 4
8 8 9 9 9 9 8 7 7 7 7 7 7 8 8 7 7 7 8 9 9 9 8 8 8 7 8 6 6 6 4 4 5 3 1 1 1 2 2 2 2 2 2
7 8 8 8 8 8 7 7 7 7 7 8 8 8 8 7 7 7 8 8 8 7 7 8 7 8 8 6 7 6 4 4 3 3 1 1 2 2 2 3 3 2 2
7 8 8 7 7 7 6 7 7 8 8 8 8 8 8 7 7 6 7 7 7 7 6 7 7 7 6 6 6 5 5 5 4 4 3 2 2 2 3 3 3 3 3
7 7 7 6 6 7 7 7 7 8 9 8 8 8 8 7 6 6 6 7 6 6 6 6 6 7 8 5 4 4 5 4 4 4 3 3 3 3 2 2 2 3 3
7 6 5 5 6 6 6 7 7 8 8 8 8 8 8 6 8 10 7 6 5 6 6 5 6 7 8 8 6 5 5 4 4 3 2 1 1 1 1 1 2 3 3
6 5 5 5 5 5 6 7 7 6 7 7 7 7 7 7 10 11 10 6 5 5 5 4 5 6 7 5 6 7 5 4 4 4 2 2 2 2 1 1 1 1 3
5 5 5 5 5 5 6 6 5 5 5 5 5 5 6 7 10 10 10 7 6 6 5 5 5 5 6 5 6 6 5 3 1 2 3 4 4 3 3 2 2 2 3
5 5 5 5 5 5 5 5 4 5 5 4 4 5 6 6 9 9 8 5 5 5 4 4 4 5 7 8 6 5 5 4 4 3 4 5 6 6 4 1 1 2 2
4 4 4 5 5 5 4 4 3 4 4 4 4 4 5 5 9 9 8 4 5 3 3 4 4 4 6 6 4 4 4 4 5 6 6 5 4 3 4 4 3 2 1
5 5 4 4 4 4 3 3 4 4 5 4 5 4 4 5 8 10 8 4 3 3 2 2 2 4 5 4 2 1 2 3 3 4 3 4 3 3 2 3 4 4 3
5 5 4 3 3 3 3 3 4 5 5 4 4 4 3 4 6 8 10 8 5 3 1 2 3 5 6 6 3 3 4 3 2 3 3 3 3 3 3 3 4 5 6
5 5 4 4 3 3 4 4 4 4 3 3 3 3 3 3 5 9 10 9 8 3 2 4 5 5 5 4 6 7 4 2 2 2 2 2 3 4 4 3 3 2 3
6 4 4 5 5 5 4 4 4 3 3 3 3 3 2 2 3 4 4 4 6 5 4 5 6 5 4 3 4 4 2 0 0 0 2 3 3 3 3 2 2 3 3
5 5 5 5 6 5 5 4 3 1 3 5 4 3 3 1 0 1 2 2 2 3 3 3 4 4 4 4 3 3 3 2 2 2 2 3 3 3 3 2 2 2 2
5 5 4 4 4 4 4 4 7 5 6 6 6 5 2 2 2 2 3 4 4 3 3 3 2 2 2 2 2 2 2 2 2 2 2 2 2 3 3 3 2 2 2
5 5 4 4 4 3 3 4 2 4 5 4 4 4 3 2 0 3 5 7 5 2 2 1 1 1 1 1 1 1 2 2 2 2 2 2 3 3 2 3 3 3 3
5 5 5 4 4 4 3 3 3 3 1 1 2 1 1 1 3 4 5 5 4 3 1 0 1 1 1 1 1 1 2 3 3 3 3 3 3 3 3 4 3 3 3
4 3 3 3 3 4 4 3 3 3 2 1 1 2 3 3 4 4 2 2 1 1 1 1 1 0 1 1 1 2 2 2 3 3 3 4 4 3 3 4 4 5 3
3 4 4 3 3 3 3 3 3 3 2 2 2 2 1 1 2 2 1 1 1 1 0 1 1 1 2 2 2 2 3 3 3 3 3 4 4 3 4 5 5 4 3
3 2 3 2 2 2 3 3 3 3 3 3 3 4 4 2 2 2 2 2 2 2 1 2 2 2 2 2 2 3 3 2 2 3 3 3 4 4 4 4 5 4 4
3 2 2 2 2 2 2 2 3 3 4 4 3 2 5 3 2 2 2 3 3 3 3 3 2 2 2 2 2 2 1 1 2 3 3 4 4 4 5 5 5 4 4
3 3 2 2 2 3 2 2 2 2 3 3 3 2 2 3 3 3 3 3 3 2 2 3 3 2 1 2 2 2 2 1 1 2 3 4 4 4 4 4 5 5 4
4 4 4 3 3 3 3 2 2 3 3 3 3 3 3 3 3 4 4 3 3 3 3 3 3 4 5 3 2 2 2 2 2 2 3 3 4 4 4 4 5 5 4
4 4 4 4 4 4 3 3 3 3 3 3 3 3 3 3 4 4 4 3 4 4 4 4 3 4 6 6 5 3 3 3 2 2 3 3 4 4 4 4 4 4 3
4 4 4 4 4 4 4 4 4 4 3 3 3 4 4 4 4 4 4 4 4 4 4 4 5 6 6 5 6 5 4 3 3 3 2 2 3 4 4 3 5 4 4
Wind_Direction
66 73 77 78 79 80 81 81 81 78 73 73 73 71 68 65 64 71 73 71 72 68 66 69 63 59 62 56 65 77 83 103 115 103 3 316 191 264 288 276 260 252 255
68 75 77 77 79 80 79 75 75 76 72 72 71 67 65 64 63 71 79 74 75 73 68 68 62 65 58 54 62 68 73 85 116 115 31 9 308 277 293 307 309 284 262
72 76 76 76 78 78 77 75 73 73 70 67 67 66 63 61 64 69 76 76 74 74 74 74 68 70 62 57 60 62 62 70 85 105 75 20 1 358 6 350 351 345 313
77 77 75 73 77 78 74 72 72 74 74 71 69 66 63 61 61 67 76 77 74 71 72 72 69 73 74 68 65 62 70 69 70 80 68 34 15 354 35 15 355 340 327
88 85 82 78 76 76 72 70 72 76 79 76 73 64 57 55 55 70 75 80 78 72 65 63 67 72 72 70 79 77 80 78 76 76 65 43 17 16 3 337 349 327 320
95 91 87 81 78 77 75 76 78 77 75 73 70 68 60 54 61 69 79 77 80 81 75 62 57 47 46 50 66 92 108 105 103 94 82 79 324 302 314 344 2 8 323
102 99 91 85 80 79 88 83 84 83 82 78 73 72 65 49 58 65 75 83 82 86 88 72 60 42 39 40 46 58 61 88 127 137 140 203 229 241 257 336 329 271 259
108 105 99 94 90 86 87 88 89 89 90 87 80 72 64 44 52 64 76 77 77 78 85 90 80 45 35 53 58 51 40 27 105 175 205 230 233 226 205 216 243 289 295
112 110 107 104 100 94 90 90 92 94 90 88 87 79 68 38 44 67 82 79 78 71 73 78 81 62 46 61 63 52 30 1 359 342 267 263 260 247 208 165 8 41 344
123 120 112 109 109 105 102 95 92 99 101 97 82 73 73 52 48 67 86 87 86 77 57 48 53 62 54 60 66 57 25 337 337 341 344 343 328 307 205 186 182 166 232
126 112 104 105 109 105 91 91 104 101 96 88 81 63 59 55 49 58 74 90 105 95 60 18 350 7 22 28 49 78 304 313 318 331 338 342 346 338 302 226 202 184 194
117 111 107 105 106 98 93 88 100 107 101 93 82 58 37 35 43 51 63 77 97 90 48 334 311 326 338 345 344 316 332 358 5 7 8 351 338 323 305 290 245 223 218
111 109 101 83 69 82 95 98 92 96 102 101 94 81 42 25 26 41 53 62 66 64 343 319 320 326 334 338 336 342 360 34 26 14 349 313 290 289 303 319 327 311 287
119 115 105 92 78 66 67 79 96 107 115 119 118 111 76 37 23 21 28 32 30 20 354 342 355 8 17 349 341 359 24 49 135 304 297 303 318 336 343 343 340 344 348
117 111 106 100 99 84 69 60 82 85 164 148 150 149 139 119 300 71 65 26 2 346 347 10 19 18 17 11 11 10 16 26 23 351 352 351 349 349 335 335 344 355 351
118 119 120 119 113 108 101 65 41 59 80 111 137 142 135 156 152 56 27 5 350 3 50 34 10 8 15 12 13 3 359 355 345 350 359 352 341 336 329 329 343 346 316
135 140 138 139 138 134 128 121 93 27 41 71 107 129 141 162 73 16 4 356 4 52 59 22 344 331 336 348 359 351 333 326 336 0 1 348 338 334 337 333 336 333 318
136 143 147 155 159 158 159 156 150 147 132 331 337 267 234 288 331 355 8 19 20 33 56 301 285 300 341 3 359 355 353 -0 10 11 9 2 355 346 342 335 329 320 309
135 140 144 150 158 164 166 169 171 173 180 207 309 315 295 313 329 338 38 63 9 353 2 350 302 352 45 44 38 37 37 32 25 25 16 8 359 353 343 334 327 325 323
140 151 142 139 144 152 162 170 180 186 196 212 232 247 275 359 333 331 352 215 211 240 318 66 75 98 90 67 59 61 56 42 26 21 3 354 347 349 340 331 327 322 308
149 153 144 133 143 154 163 177 187 187 198 219 236 238 204 198 237 249 241 212 200 195 159 125 116 105 91 82 85 77 69 37 13 360 349 340 339 336 329 326 322 319 314
161 169 163 167 172 174 179 183 181 188 199 210 234 260 217 196 208 210 210 210 204 196 176 152 147 153 148 142 137 117 84 19 348 343 335 330 330 329 329 332 332 329 328
173 178 181 185 182 187 188 191 188 190 202 212 218 224 199 193 202 203 205 204 195 188 177 159 156 166 164 153 151 151 157 223 273 297 316 322 325 325 326 326 326 328 330
177 185 184 184 182 186 196 205 210 210 210 215 215 206 203 202 205 206 204 201 193 190 183 179 181 182 177 171 168 168 188 217 245 273 295 300 310 314 319 324 324 325 327
176 184 185 188 194 199 205 212 218 218 213 212 207 204 208 206 206 210 209 204 193 193 196 190 187 185 185 186 188 199 215 227 242 260 271 278 296 308 315 320 324 328 334
189 190 193 195 197 198 199 206 213 213 214 216 211 209 207 205 207 208 206 201 197 199 201 201 202 197 194 195 199 203 214 235 261 281 275 279 306 319 326 321 327 331 336